User: anonymous   Login
Location: Neuvy Saint Sepulchre
(46.5953°N, 1.8122°E)
Time: 09:28:17
(UTC+02:00)
Language:

ISS - Orbit

View from above orbital plane
View from above orbital plane
View from above satellite
View from above satellite

Ground track
Ground track

The orbit data is extracted from the following two-line orbital elements,

1 25544U 98067A   20225.58683648  .00016717  00000-0  10270-3 0  9039
2 25544  51.6400  69.3423 0001146  23.1609 336.9593 15.49157844   756
Epoch (UTC): 12 August 2020 14:05:02
Eccentricity: 0.0001146
inclination: 51.6400°
perigee height: 418 km
apogee height: 420 km
right ascension of ascending node: 69.3423°
argument of perigee: 23.1609°
revolutions per day: 15.49157844
mean anomaly at epoch: 336.9593°
orbit number at epoch: 75

The dashed part of the orbit path shows where the satellite is in the earth's shadow,  

DLR